Preview of NWS' New Version of Forecast
This preview is not operational and should not be used for support decisions.

Regional Weather Roundup (RWR)

Issued by National Weather Service (NWS)

                            
000
ASUS42 KTBW 221816
RWRFL 
FLORIDA REGIONAL WEATHER ROUNDUP
NATIONAL WEATHER SERVICE TAMPA BAY RUSKIN FL
200 PM EDT WED MAY 22 2019

NOTE: "FAIR" INDICATES FEW OR NO CLOUDS BELOW 12,000 FEET WITH NO
SIGNIFICANT WEATHER AND/OR OBSTRUCTIONS TO VISIBILITY.

FLZ001>010-012>015-112-114-115-221900-
PANHANDLE FLORIDA
  
CITY           SKY/WX    TMP DP  RH WIND       PRES   REMARKS
PENSACOLA      FAIR      86  73  65 S12       30.08S                  
PENSACOLA NAS  FAIR      84  74  71 S10       30.08S                  
MILTON NAS     FAIR      87  68  52 SW10      30.08S                  
CRESTVIEW      FAIR      92  59  33 S10       30.09S                  
DUKE FIELD     FAIR      90  57  32 SE9       30.07S                  
VALPARAISO     MOSUNNY   85  69  57 S12G17    30.08S                  
MARY ESTHER    MOSUNNY   85  70  62 S9        30.07S                  
PANAMA CITY    FAIR      90  63  40 S8        30.07S                  
TYNDALL AFB    FAIR      86  71  61 SW9       30.07S                  
APALACHICOLA   FAIR      87  71  58 SE9       30.08S                  

STATION/POSITION SKY/WX   TEMP    WIND        PRES    WAVE   SWELL
                          AIR SEA DIR/SP/G            HT/PER HT/PER
                          (F)     (DEG/KT/KT) (MB)    (FT/S) (FT/S)
30.1N   87.6W                                   N/A     3/ 6
29.2N   88.2W                     120/ 14/ 16 1018.2R   4/ 6   2/ 8
PANAMA CITY BEAC           81 82  180/  8/  9 1019.1R
TOWER C          NOT AVBL

$$
FLZ011-016>038-118-127-128-134-139-239-221900-
NORTH FLORIDA
  
CITY           SKY/WX    TMP DP  RH WIND       PRES   REMARKS
MARIANNA       FAIR      92  62  36 SW7       30.06F                  
TALLAHASSEE    FAIR      92  69  47 VRB5      30.07S HX  97           
PERRY          FAIR      92  74  55 SW10G17   30.07S HX 102           
LIVE OAK       MOSUNNY   93  66  40 NE6       30.07S HX  96           
CROSS CITY     FAIR      93  67  41 E7        30.06F HX  96           
LAKE CITY      FAIR      91  63  38 SE5       30.08F                  
GAINESVILLE    FAIR      94  66  39 NE6       30.10F HX  97           
WILLISTON      FAIR      91  65  43 E7        30.08S                  
PALATKA        FAIR     N/A N/A N/A E8        30.09F                  
MAYPORT NAS    FAIR      85  70  60 SE13      30.12S                  
JACKSONVILLE   FAIR      91  61  36 E13G25    30.09S                  
JAX NAS        FAIR      91  62  37 E13       30.10S                  
JAX CECIL      MOSUNNY   97  64  34 E6        30.09S HX  99           
FERNANDINA BEA FAIR      83  73  71 SE14      30.12S                  
ST AUGUSTINE   FAIR      83  71  67 SE10      30.13S                  
PALM COAST     SUNNY     84  66  54 E8        30.12S                  

STATION/POSITION SKY/WX   TEMP    WIND        PRES    WAVE   SWELL
                          AIR SEA DIR/SP/G            HT/PER HT/PER
                          (F)     (DEG/KT/KT) (MB)    (FT/S) (FT/S)
SHELL POINT      NOT AVBL
KEATON BEACH               82     230/  5/  5 1018.7F
CEDAR KEY                  82     210/  7/  8 1018.5F
FERNANDINA                 87 81  140/  7/ 11 1020.7R
30.7N   81.3W                 80                N/A     2/ 4
MAYPORT                    81 80  110/ 10/ 12 1020.2R
31.4N   80.9W              78 79  160/  4/  6 1020.4R   2/ 5   2/ 5
ST AUGUSTINE               78 81  120/  9/ 10 1020.2F

$$
FLZ040-043>046-052-053-057-058-063-144-221900-
INTERIOR CENTRAL FLORIDA
  
CITY           SKY/WX    TMP DP  RH WIND       PRES   REMARKS
OCALA          FAIR      91  66  43 E12       30.08F                  
LEESBURG       FAIR      90  62  39 E7G17     30.09F                  
SANFORD        FAIR      91  61  36 NE13      30.09F                  
ORLANDO EXEC   FAIR      89  61  38 NE9G18    30.09S                  
ORLANDO INTL   FAIR      90  63  40 E12G21    30.08F                  
KISSIMMEE      FAIR      88  65  46 E13       30.09F                  
WINTER HAVEN   FAIR      92  62  36 NE10      30.09S                  
LAKELAND       MOSUNNY   90  64  43 NE8       30.08F                  
BARTOW         MOSUNNY   90  63  40 NE8       30.07F                  
SEBRING        FAIR      90  60  35 NE8G18    30.07F                  
OKEECHOBEE     FAIR      88  64  45 E10       30.07S                  

$$
FLZ041-047-054-059-064-141-147-221900-
EAST CENTRAL FLORIDA
  
CITY           SKY/WX    TMP DP  RH WIND       PRES   REMARKS
ORMOND BEACH   SUNNY     82  68  61 E9        30.12S                  
DAYTONA BEACH  FAIR      84  70  62 E7        30.12S                  
DELAND         FAIR      88  63  42 NE13G18   30.10S                  
NEW SMYRNA BEA SUNNY     82  68  61 E9        30.13S                  
JFK SPACE CTR  FAIR      83  69  62 E9        30.10F                  
TITUSVILLE     MOSUNNY   88  64  45 E9        30.11F                  
CAPE CANAVERAL FAIR      83  57  41 E12       30.10S                  
PATRICK AFB    FAIR      83  68  59 NE12      30.10F                  
MELBOURNE      FAIR      84  68  58 NE15      30.10F                  
VERO BEACH     PTSUNNY   83  68  60 NE15      30.10S                  
FT PIERCE      FAIR      84  67  56 NE10G18   30.09S                  
STUART         PTSUNNY   82  68  61 E12G17    30.10S                  

STATION/POSITION SKY/WX   TEMP    WIND        PRES    WAVE   SWELL
                          AIR SEA DIR/SP/G            HT/PER HT/PER
                          (F)     (DEG/KT/KT) (MB)    (FT/S) (FT/S)
28.5N   80.2W              79      70/ 10/ 12 1020.1
28.9N   78.5W              78 80   40/  8/ 12 1020.3
TRIDENT PIER               81 83   60/ 11/ 13 1021.0F
28.4N   80.5W                 81                N/A     2/ 8
27.5N   80.2W                 80                N/A     2/ 8

$$
FLZ050-056-061-142-242-148-248-149-249-151-251-155-255-
160-260-221900-
WEST CENTRAL FLORIDA
  
CITY           SKY/WX    TMP DP  RH WIND       PRES   REMARKS
CRYSTAL RIVER  FAIR      91  63  38 E9        30.07S                  
INVERNESS      FAIR      90  66  45 E10       30.08F                  
BROOKSVILLE    FAIR      91  64  40 MISG      30.07F                  
CLEARWATER AIR CLOUDY    84  72  65 NW6       30.06F                  
ST PETE CLEARW FAIR      88  68  51 NE6       30.06F                  
TAMPA INTL     FAIR      87  71  58 SW6       30.07F                  
TAMPA EXEC     FAIR      91  68  46 NE5       30.07F HX  95           
PLANT CITY     FAIR      91  64  40 E8        30.09F                  
MACDILL AFB    FAIR      88  70  56 NE7       30.06F                  
PETER O KNIGHT PTSUNNY   91  70  49 S5        30.06F HX  97           
ST PETERSBURG  FAIR      82  72  71 E12       30.05F                  
SARASOTA       FAIR      94  62  34 E9        30.04S                  
VENICE         FAIR      90  73  58 W9        30.06S HX  98           

STATION/POSITION SKY/WX   TEMP    WIND        PRES    WAVE   SWELL
                          AIR SEA DIR/SP/G            HT/PER HT/PER
                          (F)     (DEG/KT/KT) (MB)    (FT/S) (FT/S)
27.3N   84.2W                 82                N/A     2/ 6
CLEARWATER BEACH           82 85  290/  7/  9 1018.3F
MIDDLE TAMPA BAY           83      20/ 10/ 11 1018.2F
VENICE                     83 82  260/  7/  8 1017.6F

$$
FLZ066-069-070-075>078-162-262-165-265-221900-
SOUTHWEST FLORIDA AND KEYS
  
CITY           SKY/WX    TMP DP  RH WIND       PRES   REMARKS
PUNTA GORDA    FAIR      90  63  40 E12G17    30.06F                  
FT MYERS       FAIR      89  66  46 E9        30.04F                  
SOUTHWEST INTL FAIR      91  65  41 NE9       30.04F                  
NAPLES         FAIR      91  65  41 NE10      30.03F                  
MARCO ISLAND   FAIR      89  64  43 NE8       30.05F                  
IMMOKALEE      FAIR      90  63  40 E15G21    30.03F                  
MARATHON       FAIR      91  71  51 E9G17     30.03F HX  97           
KEY WEST NAS   FAIR      90  73  57 E14       30.03F HX  98           
KEY WEST INTL  FAIR      87  74  64 E15       30.03F HX  95           

STATION/POSITION SKY/WX   TEMP    WIND        PRES    WAVE   SWELL
                          AIR SEA DIR/SP/G            HT/PER HT/PER
                          (F)     (DEG/KT/KT) (MB)    (FT/S) (FT/S)
NAPLES                     88 85              1017.1F
DRY TORTUGAS               82      90/ 12/ 12 1017.1F
SAND KEY                   82                 1016.9F
SOMBRERO KEY               81                 1016.5F

$$
FLZ067-068-071>074-168-172>174-221900-
SOUTHEAST FLORIDA 
  
CITY           SKY/WX    TMP DP  RH WIND       PRES   REMARKS
W PALM BEACH   FAIR      86  67  52 E13       30.08S                  
BOCA RATON     MOSUNNY   88  70  55 E15       30.07S                  
FT LAUDER-EXEC PTSUNNY   86  69  56 E17       30.06S                  
FT LAUDERDALE  FAIR      85  68  56 E13       30.06S                  
POMPANO BEACH  FAIR      86  68  54 NE17      30.07S                  
PEMBROKE PINES FAIR      87  67  51 E14       30.07F                  
OPA LOCKA      FAIR      87  67  51 E15       30.06F                  
MIAMI          FAIR      87  66  49 E13G18    30.06S                  
WEST KENDALL   FAIR      88  65  46 E12       30.05S                  
HOMESTEAD      FAIR      85  68  57 E14       30.05S                  

STATION/POSITION SKY/WX   TEMP    WIND        PRES    WAVE   SWELL
                          AIR SEA DIR/SP/G            HT/PER HT/PER
                          (F)     (DEG/KT/KT) (MB)    (FT/S) (FT/S)
PORT EVERGLADES            83      70/  8/ 11 1018.3
VIRGINIA KEY               81 85   50/  9/ 10 1017.5F
LAKE WORTH                 80 82              1019.7F
SETTLEMENT POINT           80      50/ 12/ 14 1018.9F

$$